Station ROAM4 - Rock of Ages, MI Image indicating link to RSS feed of recent meteorological observations for station ROAM4


Conditions at ROAM4 as of
(5:00 am EDT)
0900 GMT on 04/17/2024:
     

Click on the graph icon in the table below to see a time series plot of the last five days of that observation.

5-day plot - Wind Direction Wind Direction (WDIR): E ( 90 deg true )
5-day plot - Wind Speed Wind Speed (WSPD): 32 kts
5-day plot - Wind Gust Wind Gust (GST): 36 kts
5-day plot - Atmospheric Pressure Atmospheric Pressure (PRES):29.78 in
5-day plot - Pressure Tendency Pressure Tendency (PTDY):-0.10 in ( Falling Rapidly )
5-day plot - Air Temperature Air Temperature (ATMP): 39.0 °F
5-day plot - Wind Chill Wind Chill (CHILL): 26.1 °F
5-day plot - Wind Speed at 10 Meters Wind Speed at 10 meters (WSPD10M): 27 kts
5-day plot - Wind Speed at 20 Meters Wind Speed at 20 meters (WSPD20M): 29 kts
5-day plot -  Wind Speed, Wind Gust and Atmospheric Pressure Combined plot of Wind Speed, Gust, and Air Pressure
Continuous Winds
TIME
(EDT)
5-day plot - Wind Direction WDIR 5-day plot - Wind Speed WSPD
5:00 amE ( 92 deg ) 32 kts
4:50 amE ( 95 deg ) 35 kts
4:40 amE ( 97 deg ) 35 kts
4:30 amE ( 95 deg ) 35 kts
4:20 amE ( 91 deg ) 33 kts
4:10 amE ( 88 deg ) 30 kts
 
Peak gust during the measurement hour
TIME
(EDT)
5-day plot - Gust Direction GDR 5-day plot - Gust Speed GST
4:53 amE ( 90 deg ) 46 kts
Previous observations
TIME
(EDT)
5-day plot - Wind Direction
WDIR
 
5-day plot - Wind Speed
WSPD
kts
5-day plot - Wind Gust
GST
kts
5-day plot - Wave Height
WVHT
ft
5-day plot - Dominant Wave Period
DPD
sec
5-day plot - Average Wave Period
APD
sec
5-day plot - Mean Wave Direction
MWD
 
5-day plot - Atmospheric Pressure
PRES
in
5-day plot - Pressure Tendency
PTDY
in
5-day plot - Air Temperature
ATMP
°F
5-day plot - Water Temperature
WTMP
°F
5-day plot - Dew Point
DEWP
°F
5-day plot - Salinity
SAL
psu
5-day plot - Visibility
VIS
nmi
5-day plot - Tide (above MLLW)
TIDE
ft
2024-04-17 04:00 am E 31 37----29.80-0.12 39.2-----
2024-04-17 03:00 am E 34 37----29.82-0.16 39.4-----
2024-04-17 02:00 am E 30 35----29.89-0.06 39.9-----
2024-04-17 01:00 am E 32 37----29.91-0.05 40.6-----
2024-04-17 12:00 am E 29 32----29.98-0.02 45.3-----
2024-04-16 11:00 pm E 33 39----29.95-0.07 45.9-----
2024-04-16 10:00 pmENE 32 36----29.96-0.07 44.8-----
2024-04-16 09:00 pmENE 29 32----30.00-0.07 43.9-----
2024-04-16 08:00 pmENE 28 30----30.02-0.08 42.8-----
2024-04-16 07:00 pm E 32 35----30.03-0.13 41.4-----
2024-04-16 06:00 pm E 29 32----30.07-0.14 42.4-----
2024-04-16 05:00 pmENE 28 31----30.11-0.11 41.9-----
2024-04-16 04:00 pmENE 25 27----30.16-0.05 42.1-----
2024-04-16 03:00 pmENE 21 24----30.21-0.02 44.1-----
2024-04-16 02:00 pmENE 22 23----30.21-0.04 44.1-----
2024-04-16 01:00 pmENE 18 20----30.21-0.06 43.9-----
2024-04-16 12:00 pmENE 19 21----30.22-0.05 44.4-----
2024-04-16 11:00 amENE 18 18----30.26-0.02 41.9-----
2024-04-16 10:00 am E 10 11----30.28+0.06 43.0-----
2024-04-16 09:00 amENE 13 14----30.27+0.07 42.3-----
2024-04-16 08:00 am E 10 11----30.28+0.06 41.9-----
2024-04-16 07:00 amENE 14 15----30.21+0.00 42.4-----
2024-04-16 06:00 amENE 13 14----30.20-0.02 43.9-----
2024-04-16 05:00 amENE 12 13----30.21+0.01 39.7-----